Printer-friendly version
Follow the MPC on Twitter Follow the MPC on Facebook The MPC blog
Minor Planet Center

MPEC 2006-D13 : 2006 DM

The following Minor Planet Electronic Circular may be linked-to from your own Web pages, but must not otherwise be redistributed electronically.

A form allowing access to any MPEC is at the bottom of this page.


Read MPEC 2006-D12 Read MPEC 2006-D14


M.P.E.C. 2006-D13                                Issued 2006 Feb. 21, 21:55 UT

     The Minor Planet Electronic Circulars contain information on unusual
         minor planets and routine data on comets.  They are published
   on behalf of Commission 20 of the International Astronomical Union by the
          Minor Planet Center, Smithsonian Astrophysical Observatory,
                          Cambridge, MA 02138, U.S.A.

                  Supported in part by the Brinson Foundation
                  Supported in part by the TABASGO Foundation
             Prepared using the Tamkin Foundation Computer Network

                              MPC@CFA.HARVARD.EDU
          URL http://cfa-www.harvard.edu/iau/mpc.html  ISSN 1523-6714

                                    2006 DM

Observations:
     K06D00M* C2006 02 20.33126 09 49 28.02 +18 46 11.5          19.6 V ED013703
     K06D00M  C2006 02 20.33507 09 49 27.91 +18 45 47.9          19.5 V ED013703
     K06D00M  C2006 02 20.33883 09 49 27.76 +18 45 25.4          19.8 V ED013703
     K06D00M  C2006 02 20.34262 09 49 27.62 +18 45 01.8          19.2 V ED013703
     K06D00M  C2006 02 20.34782 09 49 27.30 +18 44 30.6          19.4 V ED013703
     K06D00M  C2006 02 20.35468 09 49 27.04 +18 43 47.2          19.3 V ED013703
     K06D00M  C2006 02 20.36109 09 49 26.83 +18 43 08.6          19.8 V ED013703
     K06D00M  C2006 02 20.36750 09 49 26.50 +18 42 29.2          18.9 V ED013703
     K06D00M  C2006 02 20.88952 09 49 30.48 +17 48 48.1                 ED013J95
     K06D00M  C2006 02 20.89245 09 49 30.37 +17 48 30.0                 ED013J95
     K06D00M  C2006 02 20.89652 09 49 30.26 +17 48 05.7          19.1 R ED013J95
     K06D00M  C2006 02 21.14772 09 49 30.55 +17 22 45.5          18.6 R ED013H36
     K06D00M  C2006 02 21.15377 09 49 30.30 +17 22 08.4          19.5 R ED013H36
     K06D00M  C2006 02 21.16044 09 49 30.11 +17 21 28.9          19.5 R ED013H36
     K06D00M  C2006 02 21.34270 09 49 24.42 +17 03 04.0          19.5 V ED013G96
     K06D00M  C2006 02 21.34828 09 49 24.23 +17 02 30.3          19.3 R ED013854
     K06D00M  C2006 02 21.35116 09 49 24.04 +17 02 12.2          19.4 R ED013854
     K06D00M  C2006 02 21.35135 09 49 24.06 +17 02 10.1          19.3 V ED013G96
     K06D00M  C2006 02 21.35404 09 49 23.93 +17 01 54.0          19.5 R ED013854
     K06D00M  C2006 02 21.35993 09 49 23.73 +17 01 17.0          19.5 V ED013G96
     K06D00M  C2006 02 21.36852 09 49 23.37 +17 00 23.5          19.7 V ED013G96
     K06D00M  C2006 02 21.77997 09 49 29.91 +16 17 33.0          19.1 V ED013151
     K06D00M  C2006 02 21.78145 09 49 29.94 +16 17 23.4          19.4 V ED013151
     K06D00M  C2006 02 21.78294 09 49 30.01 +16 17 13.7          19.3 V ED013151
     K06D00M  C2006 02 21.78878 09 49 29.84 +16 16 41.5          19.4 V ED013151

Observer details:
151 Eschenberg Observatory, Winterthur.  Observer M. Griesser.  0.40-m f/5.9
    Hypergraph + CCD.
703 Catalina Sky Survey.  Observer R. A. Kowalski.  Measurers E. C. Beshore,
    E. J. Christensen, G. J. Garradd, A. D. Grauer, R. E. Hill, R. A. Kowalski,
    S. M. Larson, R. H. McNaught.  0.68-m Schmidt + CCD.
854 Sabino Canyon Observatory, Tucson.  Observer J. E. McGaha.  0.36-m f/10.0
    Schmidt-Cassegrain + CCD.
G96 Mt. Lemmon Survey.  Observer S. M. Larson.  Measurers E. C. Beshore,
    E. J. Christensen, G. J. Garradd, A. D. Grauer, R. E. Hill, R. A. Kowalski,
    S. M. Larson, R. H. McNaught.  1.5-m reflector + CCD.
H36 Sandlot Observatory, Scranton.  Observer G. Hug.  0.30-m
    Schmidt-Cassegrain + CCD.
J95 Great Shefford.  Observer P. Birtwhistle.  0.40-m f/6.0 Schmidt-Cassegrain
    + CCD.

Orbital elements:
2006 DM                                                  Earth MOID = 0.0787 AU
Epoch 2006 Mar. 6.0 TT = JDT 2453800.5                  MPC
M   8.13505              (2000.0)            P               Q
n   0.62474305     Peri.  177.41622     -0.87856132     -0.47456874
a   1.3551949      Node   334.03502     +0.43597577     -0.75063888
e   0.2119786      Incl.    7.08297     +0.19507726     -0.45970183
P   1.58           H   24.2           G   0.15           U   7
Residuals in seconds of arc
060220 703  0.7-  0.0     060220 J95  0.0   0.2-    060221 854  0.3-  0.1+
060220 703  0.1+  0.3-    060220 J95  0.0   0.1+    060221 G96  0.3+  0.1-
060220 703  0.3+  0.2+    060221 H36  0.3+  0.1-    060221 G96  0.0   0.2-
060220 703  0.6+  0.1-    060221 H36  0.5-  0.6-    060221 151  1.1-  0.1+
060220 703  0.7-  0.6+    060221 H36  0.0   0.2+    060221 151  0.4-  0.6-
060220 703  0.3-  0.7-    060221 G96  0.0   0.0     060221 151  1.0+  1.3-
060220 703  0.6+  0.1+    060221 854  0.6+  0.6+    060221 151  0.1-  1.9+
060220 703  0.4-  0.2+    060221 854  0.4-  0.4+
060220 J95  0.4+  0.2+    060221 G96  0.0   0.3-

Ephemeris:
2006 DM                  a,e,i = 1.36, 0.21, 7                   q = 1.0679
Date    TT    R. A. (2000) Decl.     Delta      r     Elong.  Phase     V
2006 02 14    09 50.07   +28 50.7    0.0847   1.069   164.3    14.5    19.8
2006 02 24    09 49.40   +12 29.4    0.0796   1.068   170.1     9.1    19.5
2006 03 06    09 51.38   -03 50.2    0.0857   1.073   159.1    19.2    20.0
2006 03 16    09 57.87   -16 02.8    0.101    1.082   148.6    28.6    20.7
2006 03 26    10 08.68   -23 37.8    0.123    1.097   141.8    34.2    21.3
2006 04 05    10 23.48   -27 48.3    0.150    1.116   137.9    36.9    21.8

Gareth V. Williams           (C) Copyright 2006 MPC           M.P.E.C. 2006-D13

Read MPEC 2006-D12 Read MPEC 2006-D14


MPEC number:

Enter an MPEC number in one of the following forms:

  • 1997-B01 (the full form)
  • J97B01 (the packed version of the full form)
  • B01 (the abbreviated form)

Valid HTML 4.01!